WZZ3UU LIPH-LWSK

Flight info

Callsign WZZ3UU
Flight time 1h 14m
Altitude 37000
Route INBUT N503 LAREN Q561 AKADO L615 TULIK M859 ROSKA T132 ROTAR DCT EBITA DCT SPL DCT MAVAR P92 GOSTI
Aircraft A320/M-SDE1E2E3FGIJ1J4RWXY/LB1

Departure

Time 2026-05-07 15:07
Airport Treviso Airport (LIPH)

Arrival

Time 2026-05-07 16:21
Airport Skopje International Airport (LWSK)
Time Latitude Longitude Altitude Speed Heading
2026-05-07 14:40 45.65400 12.20482 55 ft 0 kts 339°
2026-05-07 14:58 45.65379 12.20494 56 ft 4 kts 335°
2026-05-07 14:59 45.65355 12.20512 53 ft 4 kts 317°
2026-05-07 14:59 45.65344 12.20538 56 ft 3 kts 254°
2026-05-07 14:59 45.65345 12.20543 56 ft 0 kts 249°
2026-05-07 15:01 45.65344 12.20539 62 ft 2 kts 249°
2026-05-07 15:02 45.65331 12.20489 56 ft 8 kts 250°
2026-05-07 15:02 45.65306 12.20393 58 ft 12 kts 250°
2026-05-07 15:02 45.65273 12.20315 59 ft 9 kts 211°
2026-05-07 15:02 45.65198 12.20265 60 ft 14 kts 205°
2026-05-07 15:03 45.65106 12.20200 60 ft 16 kts 212°
2026-05-07 15:03 45.65023 12.20070 59 ft 19 kts 251°
2026-05-07 15:03 45.64974 12.19877 61 ft 22 kts 249°
2026-05-07 15:03 45.64917 12.19657 60 ft 25 kts 249°
2026-05-07 15:04 45.64855 12.19424 58 ft 26 kts 250°
2026-05-07 15:04 45.64790 12.19177 65 ft 27 kts 249°
2026-05-07 15:04 45.64721 12.18917 65 ft 28 kts 249°
2026-05-07 15:04 45.64652 12.18661 64 ft 28 kts 249°
2026-05-07 15:05 45.64587 12.18414 66 ft 26 kts 249°
2026-05-07 15:05 45.64545 12.18253 66 ft 26 kts 250°
2026-05-07 15:05 45.64494 12.18022 70 ft 15 kts 274°
2026-05-07 15:05 45.64499 12.17925 70 ft 9 kts 217°
2026-05-07 15:06 45.64467 12.17949 67 ft 8 kts 110°
2026-05-07 15:06 45.64528 12.18194 64 ft 52 kts 69°
2026-05-07 15:06 45.64654 12.18670 63 ft 98 kts 69°
2026-05-07 15:06 45.64967 12.19844 64 ft 152 kts 69°
2026-05-07 15:07 45.65360 12.21285 537 ft 158 kts 69°
2026-05-07 15:07 45.65480 12.22846 1153 ft 160 kts 96°
2026-05-07 15:07 45.65109 12.24387 1613 ft 176 kts 131°
2026-05-07 15:07 45.64046 12.25401 1974 ft 196 kts 158°
2026-05-07 15:08 45.62740 12.26326 2316 ft 222 kts 152°
2026-05-07 15:08 45.61317 12.27475 2782 ft 247 kts 151°
2026-05-07 15:08 45.59778 12.28750 3482 ft 261 kts 152°
2026-05-07 15:08 45.58187 12.30066 4449 ft 266 kts 152°
2026-05-07 15:09 45.56591 12.31375 5409 ft 270 kts 152°
2026-05-07 15:09 45.54949 12.32712 6383 ft 274 kts 153°
2026-05-07 15:09 45.53282 12.34066 7261 ft 278 kts 153°
2026-05-07 15:09 45.51580 12.35441 8133 ft 283 kts 153°
2026-05-07 15:10 45.49848 12.36831 9012 ft 288 kts 153°
2026-05-07 15:10 45.48080 12.38244 9842 ft 294 kts 153°
2026-05-07 15:10 45.46253 12.39700 10327 ft 312 kts 153°
2026-05-07 15:10 45.44297 12.41280 10678 ft 332 kts 150°
2026-05-07 15:11 45.42564 12.43517 11321 ft 344 kts 128°
2026-05-07 15:11 45.41252 12.46395 12057 ft 349 kts 123°
2026-05-07 15:11 45.39972 12.49357 12799 ft 354 kts 123°
2026-05-07 15:11 45.38688 12.52362 13571 ft 357 kts 123°
2026-05-07 15:12 45.37397 12.55396 14274 ft 361 kts 123°
2026-05-07 15:12 45.36091 12.58465 14913 ft 365 kts 123°
2026-05-07 15:12 45.34766 12.61569 15552 ft 369 kts 123°
2026-05-07 15:12 45.33420 12.64709 16180 ft 374 kts 124°
2026-05-07 15:13 45.32058 12.67876 16803 ft 378 kts 124°
2026-05-07 15:13 45.30673 12.71083 17435 ft 383 kts 124°
2026-05-07 15:13 45.29270 12.74321 18064 ft 387 kts 124°
2026-05-07 15:13 45.27852 12.77596 18650 ft 392 kts 124°
2026-05-07 15:14 45.26415 12.80905 19216 ft 396 kts 124°
2026-05-07 15:14 45.24962 12.84245 19795 ft 400 kts 125°
2026-05-07 15:14 45.23498 12.87615 20378 ft 403 kts 126°
2026-05-07 15:14 45.22040 12.90973 20931 ft 407 kts 126°
2026-05-07 15:15 45.20547 12.94408 21476 ft 411 kts 126°
2026-05-07 15:15 45.19020 12.97916 22021 ft 415 kts 127°
2026-05-07 15:15 45.17496 13.01410 22581 ft 418 kts 127°
2026-05-07 15:15 45.15977 13.04883 23138 ft 422 kts 127°
2026-05-07 15:16 45.14421 13.08439 23674 ft 426 kts 127°
2026-05-07 15:16 45.12856 13.12019 24130 ft 430 kts 127°
2026-05-07 15:16 45.11274 13.15634 24566 ft 433 kts 128°
2026-05-07 15:16 45.09679 13.19270 25047 ft 435 kts 128°
2026-05-07 15:17 45.08078 13.22918 25507 ft 438 kts 128°
2026-05-07 15:17 45.06462 13.26598 25942 ft 441 kts 128°
2026-05-07 15:17 45.04835 13.30296 26372 ft 445 kts 128°
2026-05-07 15:17 45.03193 13.34021 26781 ft 448 kts 128°
2026-05-07 15:18 45.01537 13.37768 27192 ft 451 kts 128°
2026-05-07 15:18 44.99866 13.41536 27598 ft 454 kts 128°
2026-05-07 15:18 44.98182 13.45332 27991 ft 457 kts 128°
2026-05-07 15:18 44.96486 13.49152 28348 ft 460 kts 128°
2026-05-07 15:19 44.94784 13.52983 28774 ft 462 kts 128°
2026-05-07 15:19 44.93070 13.56837 29182 ft 465 kts 128°
2026-05-07 15:19 44.91347 13.60716 29563 ft 468 kts 128°
2026-05-07 15:19 44.89612 13.64615 29959 ft 471 kts 128°
2026-05-07 15:20 44.87862 13.68535 30301 ft 474 kts 128°
2026-05-07 15:20 44.86100 13.72473 30630 ft 476 kts 128°
2026-05-07 15:20 44.84322 13.76432 30961 ft 479 kts 128°
2026-05-07 15:20 44.82539 13.80406 31256 ft 481 kts 128°
2026-05-07 15:21 44.80748 13.84395 31619 ft 482 kts 128°
2026-05-07 15:21 44.78953 13.88386 32052 ft 482 kts 128°
2026-05-07 15:21 44.77164 13.92364 32535 ft 480 kts 128°
2026-05-07 15:21 44.75404 13.96275 32983 ft 479 kts 128°
2026-05-07 15:22 44.73619 14.00230 33434 ft 478 kts 128°
2026-05-07 15:22 44.71834 14.04178 33898 ft 478 kts 129°
2026-05-07 15:22 44.70051 14.08110 34293 ft 477 kts 128°
2026-05-07 15:22 44.68269 14.12036 34674 ft 475 kts 128°
2026-05-07 15:23 44.66497 14.15942 35069 ft 474 kts 128°
2026-05-07 15:23 44.64727 14.19843 35456 ft 473 kts 128°
2026-05-07 15:23 44.62961 14.23730 35833 ft 472 kts 128°
2026-05-07 15:23 44.61197 14.27600 36205 ft 470 kts 128°
2026-05-07 15:24 44.59432 14.31464 36568 ft 469 kts 128°
2026-05-07 15:24 44.57670 14.35310 36905 ft 469 kts 128°
2026-05-07 15:24 44.55907 14.39156 37012 ft 468 kts 128°
2026-05-07 15:24 44.54150 14.42990 37020 ft 466 kts 128°
2026-05-07 15:25 44.50645 14.50620 37020 ft 465 kts 128°
2026-05-07 15:25 44.47138 14.58235 37023 ft 465 kts 128°
2026-05-07 15:26 44.43631 14.65839 37003 ft 465 kts 128°
2026-05-07 15:26 44.40107 14.73439 37028 ft 466 kts 128°
2026-05-07 15:27 44.36342 14.80758 37032 ft 462 kts 134°
2026-05-07 15:27 44.32359 14.87807 37035 ft 462 kts 134°
2026-05-07 15:28 44.28365 14.94847 37037 ft 462 kts 134°
2026-05-07 15:28 44.24375 15.01881 37048 ft 462 kts 134°
2026-05-07 15:29 44.20385 15.08910 37046 ft 462 kts 134°
2026-05-07 15:29 44.16387 15.15919 37040 ft 462 kts 134°
2026-05-07 15:30 44.12405 15.22880 37051 ft 463 kts 134°
2026-05-07 15:30 44.08384 15.29891 37066 ft 464 kts 134°
2026-05-07 15:31 44.04362 15.36898 37048 ft 464 kts 134°
2026-05-07 15:31 44.00331 15.43906 37060 ft 464 kts 134°
2026-05-07 15:32 43.96290 15.50889 37054 ft 464 kts 134°
2026-05-07 15:32 43.92245 15.57870 37050 ft 464 kts 134°
2026-05-07 15:33 43.88199 15.64842 37011 ft 464 kts 134°
2026-05-07 15:33 43.84152 15.71812 37024 ft 464 kts 134°
2026-05-07 15:34 43.80080 15.78799 37011 ft 468 kts 134°
2026-05-07 15:34 43.75974 15.85825 37012 ft 470 kts 134°
2026-05-07 15:35 43.71846 15.92874 37028 ft 472 kts 134°
2026-05-07 15:35 43.67731 15.99884 37011 ft 473 kts 134°
2026-05-07 15:36 43.63577 16.06939 37032 ft 474 kts 134°
2026-05-07 15:36 43.59414 16.13986 37045 ft 474 kts 135°
2026-05-07 15:37 43.55249 16.21033 37058 ft 474 kts 135°
2026-05-07 15:37 43.51080 16.28070 37061 ft 474 kts 134°
2026-05-07 15:38 43.47523 16.35803 37042 ft 482 kts 123°
2026-05-07 15:38 43.44282 16.43873 37059 ft 482 kts 124°
2026-05-07 15:39 43.41016 16.51920 37075 ft 482 kts 124°
2026-05-07 15:39 43.37745 16.59970 37054 ft 482 kts 124°
2026-05-07 15:40 43.34473 16.68021 37064 ft 483 kts 124°
2026-05-07 15:40 43.31194 16.76081 37060 ft 483 kts 124°
2026-05-07 15:41 43.27909 16.84131 37071 ft 483 kts 124°
2026-05-07 15:41 43.24611 16.92172 37078 ft 484 kts 124°
2026-05-07 15:42 43.21305 17.00210 37080 ft 484 kts 124°
2026-05-07 15:42 43.17997 17.08242 37060 ft 484 kts 124°
2026-05-07 15:43 43.14678 17.16258 37086 ft 484 kts 124°
2026-05-07 15:43 43.11355 17.24269 37087 ft 484 kts 124°
2026-05-07 15:44 43.08029 17.32277 37082 ft 484 kts 124°
2026-05-07 15:44 43.04692 17.40279 37063 ft 485 kts 124°
2026-05-07 15:45 43.01350 17.48283 37071 ft 485 kts 124°
2026-05-07 15:45 42.98007 17.56280 37077 ft 485 kts 124°
2026-05-07 15:46 42.92966 17.68256 37086 ft 485 kts 124°
2026-05-07 15:47 42.89602 17.76228 37065 ft 485 kts 124°
2026-05-07 15:47 42.86234 17.84191 37076 ft 485 kts 124°
2026-05-07 15:48 42.82881 17.92086 37083 ft 485 kts 124°
2026-05-07 15:48 42.79501 18.00035 37093 ft 485 kts 124°
2026-05-07 15:49 42.76117 18.07975 37066 ft 485 kts 125°
2026-05-07 15:49 42.72715 18.15928 37076 ft 487 kts 125°
2026-05-07 15:50 42.69302 18.23881 37077 ft 487 kts 125°
2026-05-07 15:50 42.65880 18.31831 37086 ft 487 kts 125°
2026-05-07 15:51 42.62452 18.39777 37085 ft 488 kts 125°
2026-05-07 15:51 42.59021 18.47715 37071 ft 488 kts 124°
2026-05-07 15:52 42.55583 18.55651 37082 ft 488 kts 125°
2026-05-07 15:52 42.52147 18.63573 37092 ft 487 kts 125°
2026-05-07 15:53 42.48704 18.71479 37094 ft 487 kts 125°
2026-05-07 15:53 42.45246 18.79379 37045 ft 488 kts 125°
2026-05-07 15:54 42.41778 18.87280 37060 ft 488 kts 125°
2026-05-07 15:54 42.38297 18.95185 37057 ft 489 kts 125°
2026-05-07 15:55 42.35380 19.01817 37080 ft 490 kts 125°
2026-05-07 15:55 42.31915 19.09678 37081 ft 490 kts 125°
2026-05-07 15:56 42.28419 19.17578 37090 ft 490 kts 125°
2026-05-07 15:56 42.24897 19.25520 37097 ft 489 kts 125°
2026-05-07 15:57 42.21416 19.33331 37092 ft 489 kts 125°
2026-05-07 15:57 42.17910 19.41187 37082 ft 489 kts 125°
2026-05-07 15:58 42.14394 19.49033 36733 ft 488 kts 125°
2026-05-07 15:58 42.12642 19.52947 36476 ft 489 kts 125°
2026-05-07 15:58 42.10882 19.56875 35971 ft 491 kts 125°
2026-05-07 15:58 42.09112 19.60808 35464 ft 491 kts 125°
2026-05-07 15:59 42.07340 19.64739 34943 ft 492 kts 125°
2026-05-07 15:59 42.05557 19.68689 34415 ft 494 kts 125°
2026-05-07 15:59 42.03775 19.72637 33829 ft 495 kts 125°
2026-05-07 15:59 42.01991 19.76591 33271 ft 492 kts 125°
2026-05-07 16:00 42.00220 19.80504 32712 ft 489 kts 124°
2026-05-07 16:00 41.98458 19.84397 32184 ft 486 kts 124°
2026-05-07 16:00 41.96708 19.88265 31647 ft 483 kts 124°
2026-05-07 16:00 41.94968 19.92105 31132 ft 479 kts 124°
2026-05-07 16:01 41.93241 19.95907 30620 ft 474 kts 124°
2026-05-07 16:01 41.91530 19.99671 30128 ft 470 kts 124°
2026-05-07 16:01 41.89830 20.03398 29598 ft 466 kts 124°
2026-05-07 16:01 41.88139 20.07105 29133 ft 465 kts 124°
2026-05-07 16:02 41.86455 20.10787 28666 ft 461 kts 124°
2026-05-07 16:02 41.84784 20.14438 28217 ft 457 kts 124°
2026-05-07 16:02 41.83127 20.18055 27779 ft 453 kts 124°
2026-05-07 16:02 41.81481 20.21641 27276 ft 450 kts 124°
2026-05-07 16:03 41.79844 20.25198 26829 ft 447 kts 124°
2026-05-07 16:03 41.78214 20.28728 26340 ft 444 kts 124°
2026-05-07 16:03 41.76593 20.32239 25857 ft 440 kts 124°
2026-05-07 16:03 41.75092 20.35809 25110 ft 446 kts 113°
2026-05-07 16:04 41.74305 20.39805 24613 ft 444 kts 96°
2026-05-07 16:04 41.74325 20.43893 24142 ft 433 kts 82°
2026-05-07 16:04 41.74703 20.47841 23452 ft 423 kts 82°
2026-05-07 16:04 41.75106 20.51717 22988 ft 419 kts 82°
2026-05-07 16:05 41.75515 20.55518 22497 ft 417 kts 82°
2026-05-07 16:05 41.75932 20.59355 22000 ft 415 kts 82°
2026-05-07 16:05 41.76342 20.63159 21521 ft 412 kts 82°
2026-05-07 16:05 41.76741 20.66952 21032 ft 409 kts 82°
2026-05-07 16:06 41.77129 20.70709 20547 ft 406 kts 82°
2026-05-07 16:06 41.77510 20.74448 20068 ft 404 kts 82°
2026-05-07 16:06 41.77885 20.78164 19582 ft 401 kts 82°
2026-05-07 16:06 41.78258 20.81847 19097 ft 398 kts 82°
2026-05-07 16:07 41.78630 20.85508 18631 ft 394 kts 82°
2026-05-07 16:07 41.78999 20.89133 18126 ft 391 kts 82°
2026-05-07 16:07 41.79364 20.92727 17650 ft 387 kts 82°
2026-05-07 16:07 41.79725 20.96281 17188 ft 383 kts 82°
2026-05-07 16:08 41.80080 20.99809 16731 ft 381 kts 82°
2026-05-07 16:08 41.80432 21.03312 16289 ft 379 kts 82°
2026-05-07 16:08 41.80779 21.06801 15815 ft 377 kts 82°
2026-05-07 16:08 41.81137 21.10270 15405 ft 375 kts 78°
2026-05-07 16:09 41.81827 21.13609 14986 ft 371 kts 70°
2026-05-07 16:09 41.82612 21.16899 14563 ft 370 kts 70°
2026-05-07 16:09 41.83395 21.20179 14150 ft 368 kts 70°
2026-05-07 16:09 41.84171 21.23432 13702 ft 365 kts 71°
2026-05-07 16:10 41.84940 21.26665 13257 ft 362 kts 71°
2026-05-07 16:10 41.85700 21.29868 12857 ft 359 kts 71°
2026-05-07 16:10 41.86454 21.33049 12438 ft 357 kts 72°
2026-05-07 16:10 41.87201 21.36219 12027 ft 355 kts 71°
2026-05-07 16:11 41.87941 21.39364 11617 ft 352 kts 72°
2026-05-07 16:11 41.88676 21.42486 11205 ft 350 kts 72°
2026-05-07 16:11 41.89413 21.45610 10659 ft 351 kts 72°
2026-05-07 16:11 41.90144 21.48723 10218 ft 349 kts 72°
2026-05-07 16:12 41.90868 21.51811 9759 ft 346 kts 72°
2026-05-07 16:12 41.91577 21.54829 9537 ft 327 kts 72°
2026-05-07 16:12 41.92158 21.57682 9126 ft 311 kts 84°
2026-05-07 16:12 41.91975 21.60501 8590 ft 299 kts 111°
2026-05-07 16:13 41.90951 21.62870 8158 ft 293 kts 136°
2026-05-07 16:13 41.89328 21.64432 7777 ft 285 kts 160°
2026-05-07 16:13 41.87449 21.65190 7400 ft 283 kts 168°
2026-05-07 16:13 41.85542 21.65856 7003 ft 283 kts 168°
2026-05-07 16:14 41.83639 21.66553 6599 ft 284 kts 161°
2026-05-07 16:14 41.81958 21.67934 6168 ft 287 kts 137°
2026-05-07 16:14 41.80766 21.70073 5793 ft 288 kts 123°
2026-05-07 16:14 41.79719 21.72364 5412 ft 287 kts 122°
2026-05-07 16:15 41.78694 21.74606 5039 ft 277 kts 124°
2026-05-07 16:15 41.77447 21.76434 4653 ft 260 kts 151°
2026-05-07 16:15 41.75776 21.77012 4403 ft 243 kts 184°
2026-05-07 16:15 41.74228 21.76299 4234 ft 235 kts 216°
2026-05-07 16:16 41.73227 21.74628 4057 ft 232 kts 248°
2026-05-07 16:16 41.73044 21.72511 3879 ft 233 kts 281°
2026-05-07 16:16 41.73740 21.70578 3717 ft 234 kts 313°
2026-05-07 16:16 41.75106 21.69440 3616 ft 234 kts 343°
2026-05-07 16:17 41.76674 21.68887 3599 ft 228 kts 346°
2026-05-07 16:17 41.78185 21.68380 3606 ft 223 kts 346°
2026-05-07 16:17 41.79644 21.67879 3599 ft 209 kts 346°
2026-05-07 16:17 41.81015 21.67404 3603 ft 199 kts 346°
2026-05-07 16:18 41.82339 21.66945 3607 ft 191 kts 346°
2026-05-07 16:18 41.83619 21.66502 3350 ft 189 kts 346°
2026-05-07 16:18 41.84890 21.66061 3061 ft 188 kts 346°
2026-05-07 16:18 41.86154 21.65622 2778 ft 185 kts 346°
2026-05-07 16:19 41.87374 21.65198 2494 ft 176 kts 347°
2026-05-07 16:19 41.88499 21.64807 2274 ft 159 kts 346°
2026-05-07 16:19 41.89530 21.64448 2057 ft 148 kts 347°
2026-05-07 16:19 41.90517 21.64106 1850 ft 145 kts 346°
2026-05-07 16:20 41.91469 21.63777 1631 ft 142 kts 346°
2026-05-07 16:20 41.92421 21.63444 1364 ft 141 kts 346°
2026-05-07 16:20 41.93374 21.63103 1103 ft 143 kts 346°
2026-05-07 16:20 41.94338 21.62768 874 ft 143 kts 347°
2026-05-07 16:21 41.95276 21.62452 780 ft 125 kts 345°
2026-05-07 16:21 41.95929 21.62224 783 ft 68 kts 346°
2026-05-07 16:21 41.96314 21.62091 787 ft 44 kts 346°
2026-05-07 16:21 41.96463 21.62044 787 ft 14 kts 355°
2026-05-07 16:22 41.96506 21.62123 787 ft 10 kts 76°
2026-05-07 16:22 41.96526 21.62229 787 ft 13 kts 77°
2026-05-07 16:22 41.96469 21.62303 786 ft 12 kts 164°
2026-05-07 16:22 41.96376 21.62337 786 ft 16 kts 165°
2026-05-07 16:23 41.96258 21.62379 785 ft 19 kts 165°
2026-05-07 16:23 41.96152 21.62415 784 ft 9 kts 167°
2026-05-07 16:23 41.96131 21.62481 784 ft 9 kts 89°
2026-05-07 16:23 41.96084 21.62522 784 ft 8 kts 165°
2026-05-07 16:24 41.96067 21.62559 783 ft 2 kts 72°
2026-05-07 16:24 41.96072 21.62577 783 ft 2 kts 73°
2026-05-07 16:24 41.96074 21.62588 783 ft 0 kts 73°